Погода в Киевке

Казахстан     50°15′42″N   71°32′53″E
темп.,
°C
ветер,
м/с
пор.,
м/с
влажн.,
%
обл.,
%
осадки,
мм/ч
давл.,
гПа
погр.,
м
20 января, ср
ср2000:00−12в5988100 0.0 1018152
03:00−11вюв4887100 0.0 1017156
06:00−10юв4887100 0.0 1017147
09:00−7ю4892100 0.0 1015217
12:00−3юз61193100 0.2 1015510
15:00−3зюз7119299 0.1 1015558
18:00−6зюз6119099 0.1 1019509
21:00−13зюз459696 0.0 102271
21 января, чт
чт2100:00−16зюз349698 0.0 102532
03:00−18зюз2397100 0.0 102520
06:00−18юз2297100 0.0 102420
09:00−18ююв1196100 0.0 102220
12:00−13св1189100 0.0 102064
15:00−11св2286100 0.0 1018156
18:00−12ссв3490100 0.0 101671
21:00−13с3489100 0.0 101695
22 января, пт
пт2200:00−15с4792100 0.0 1015154
03:00−15с4693100 0.0 1015168
06:00−16ссз4794100 0.0 1015219
09:00−19ссз4496100 0.1 101878
12:00−20зсз3595100 0.1 1020182
15:00−21з479479 0.0 1022289
18:00−25юз459771 0.0 102579
21:00−20юз599696 0.1 1028363
23 января, сб
сб2300:00−19юз5109598 0.2 1028398
03:00−18юз61195100 0.1 1028438
06:00−17юз71294100 0.4 1027501
09:00−16юз71294100 0.3 1028574
12:00−14зюз71092100 0.6 1028792
15:00−14з6889100 0.2 1028771
18:00−18з4595100 0.3 103184
21:00−21з449990 0.0 103544
24 января, вс
вс2400:00−24з3410090 0.1 103822
03:00−26з239883 0.0 103920
06:00−24юз239692 0.0 104047
09:00−23ююз3495100 0.0 1040123
12:00−19ююз5891100 0.0 1039282
15:00−15ююз699099 0.0 1036367
18:00−14ююз6119399 0.1 1035394
21:00−14юз71194100 0.4 1034365